TimeEST,TemperatureF,Dew PointF,Humidity,Sea Level PressureIn,VisibilityMPH,Wind Direction,Wind SpeedMPH,Gust SpeedMPH,PrecipitationIn,Events,Conditions,WindDirDegrees,DateUTC
12:16 AM,30.2,26.6,86,29.76,10.0,SSW,4.6,-,N/A,,Scattered Clouds,200,2007-01-09 05:16:00
12:36 AM,30.2,26.6,86,29.76,10.0,SSW,4.6,-,N/A,,Scattered Clouds,210,2007-01-09 05:36:00
12:56 AM,30.2,26.6,86,29.76,10.0,SSW,4.6,-,N/A,,Scattered Clouds,200,2007-01-09 05:56:00
1:16 AM,30.2,26.6,86,29.75,10.0,SSW,4.6,-,N/A,,Scattered Clouds,210,2007-01-09 06:16:00
1:37 AM,28.4,24.8,86,29.75,10.0,SW,3.5,-,N/A,,Clear,220,2007-01-09 06:37:00
1:56 AM,30.2,24.8,80,29.76,10.0,SW,3.5,-,N/A,,Clear,220,2007-01-09 06:56:00
2:16 AM,28.4,26.6,93,29.76,10.0,Calm,Calm,-,N/A,,Clear,0,2007-01-09 07:16:00
2:38 AM,28.4,26.6,93,29.76,10.0,Calm,Calm,-,N/A,,Scattered Clouds,0,2007-01-09 07:38:00
3:16 AM,28.4,26.6,93,29.77,10.0,SW,3.5,-,N/A,,Clear,220,2007-01-09 08:16:00
3:36 AM,28.4,24.8,86,29.77,10.0,Calm,Calm,-,N/A,,Clear,0,2007-01-09 08:36:00
3:56 AM,28.4,24.8,86,29.77,10.0,Calm,Calm,-,N/A,,Clear,0,2007-01-09 08:56:00
4:16 AM,28.4,26.6,93,29.77,10.0,West,3.5,-,N/A,,Scattered Clouds,270,2007-01-09 09:16:00
4:36 AM,30.2,26.6,86,29.78,10.0,West,5.8,-,N/A,,Mostly Cloudy,280,2007-01-09 09:36:00
4:56 AM,30.2,26.6,86,29.78,10.0,West,8.1,-,N/A,,Overcast,280,2007-01-09 09:56:00
5:16 AM,30.2,26.6,86,29.79,10.0,West,6.9,-,N/A,,Mostly Cloudy,280,2007-01-09 10:16:00
5:36 AM,30.2,26.6,86,29.80,10.0,WNW,4.6,-,N/A,,Mostly Cloudy,290,2007-01-09 10:36:00
5:56 AM,28.4,24.8,86,29.80,10.0,WNW,3.5,-,N/A,,Scattered Clouds,300,2007-01-09 10:56:00
6:16 AM,28.4,24.8,86,29.81,10.0,West,4.6,-,N/A,,Clear,270,2007-01-09 11:16:00
6:36 AM,26.6,24.8,93,29.82,10.0,West,5.8,-,N/A,,Mostly Cloudy,270,2007-01-09 11:36:00
6:56 AM,28.4,24.8,86,29.83,10.0,West,5.8,-,N/A,,Scattered Clouds,270,2007-01-09 11:56:00
7:16 AM,28.4,24.8,86,29.84,10.0,West,8.1,-,N/A,,Mostly Cloudy,280,2007-01-09 12:16:00
7:36 AM,28.4,23.0,80,29.85,10.0,West,6.9,-,N/A,,Scattered Clouds,270,2007-01-09 12:36:00
7:56 AM,28.4,23.0,80,29.86,10.0,West,8.1,-,N/A,,Mostly Cloudy,270,2007-01-09 12:56:00
8:16 AM,30.2,23.0,75,29.87,10.0,West,6.9,-,N/A,,Overcast,270,2007-01-09 13:16:00
8:36 AM,30.2,23.0,75,29.87,10.0,West,8.1,-,N/A,,Overcast,270,2007-01-09 13:36:00
8:56 AM,30.2,21.2,69,29.88,10.0,WNW,12.7,18.4,N/A,,Overcast,290,2007-01-09 13:56:00
9:16 AM,30.2,19.4,64,29.89,10.0,WNW,11.5,-,N/A,,Overcast,300,2007-01-09 14:16:00
9:36 AM,30.2,19.4,64,29.90,10.0,WNW,17.3,24.2,N/A,,Overcast,290,2007-01-09 14:36:00
9:56 AM,30.2,19.4,64,29.91,10.0,WNW,11.5,20.7,N/A,,Overcast,290,2007-01-09 14:56:00
10:17 AM,30.2,19.4,64,29.93,10.0,WNW,12.7,23.0,N/A,,Overcast,290,2007-01-09 15:17:00
10:36 AM,30.2,19.4,64,29.94,10.0,WNW,16.1,23.0,N/A,,Overcast,290,2007-01-09 15:36:00
10:56 AM,30.2,19.4,64,29.95,10.0,West,18.4,28.8,N/A,,Overcast,280,2007-01-09 15:56:00
11:17 AM,30.2,19.4,64,29.96,10.0,WNW,18.4,25.3,N/A,,Overcast,290,2007-01-09 16:17:00
11:36 AM,30.2,19.4,64,29.96,10.0,WNW,13.8,23.0,N/A,,Overcast,290,2007-01-09 16:36:00
11:56 AM,30.2,19.4,64,29.96,10.0,WNW,19.6,25.3,N/A,Snow,Light Snow,290,2007-01-09 16:56:00
12:16 PM,30.2,21.2,69,29.96,10.0,WNW,21.9,26.5,N/A,Snow,Light Snow,290,2007-01-09 17:16:00
12:56 PM,30.2,21.2,69,29.97,10.0,WNW,15.0,24.2,N/A,,Overcast,290,2007-01-09 17:56:00
1:16 PM,28.4,21.2,74,29.97,7.0,WNW,13.8,24.2,N/A,Snow,Light Snow,290,2007-01-09 18:16:00
1:36 PM,28.4,21.2,74,29.97,7.0,WNW,16.1,23.0,N/A,Snow,Light Snow,300,2007-01-09 18:36:00
1:56 PM,30.2,21.2,69,29.98,5.0,WNW,17.3,27.6,N/A,Snow,Light Snow,300,2007-01-09 18:56:00
2:16 PM,30.2,21.2,69,29.98,7.0,WNW,15.0,21.9,N/A,Snow,Light Snow,290,2007-01-09 19:16:00
2:36 PM,30.2,21.2,69,30.00,10.0,WNW,17.3,24.2,N/A,,Scattered Clouds,300,2007-01-09 19:36:00
3:16 PM,30.2,17.6,60,30.02,10.0,West,21.9,26.5,N/A,,Overcast,280,2007-01-09 20:16:00
3:36 PM,30.2,17.6,60,30.02,10.0,WNW,12.7,27.6,N/A,,Mostly Cloudy,290,2007-01-09 20:36:00
3:56 PM,30.2,17.6,60,30.03,10.0,WNW,19.6,27.6,N/A,Snow,Light Snow,290,2007-01-09 20:56:00
4:16 PM,30.2,17.6,60,30.04,10.0,West,16.1,29.9,N/A,,Overcast,280,2007-01-09 21:16:00
4:36 PM,28.4,17.6,64,30.05,10.0,WNW,17.3,25.3,N/A,,Overcast,290,2007-01-09 21:36:00
4:56 PM,28.4,17.6,64,30.06,10.0,WNW,16.1,24.2,N/A,Snow,Light Snow,290,2007-01-09 21:56:00
5:16 PM,28.4,15.8,59,30.07,10.0,West,19.6,26.5,N/A,,Overcast,280,2007-01-09 22:16:00
5:36 PM,28.4,15.8,59,30.08,10.0,WNW,17.3,25.3,N/A,,Overcast,300,2007-01-09 22:36:00
5:56 PM,28.4,17.6,64,30.09,10.0,West,20.7,24.2,N/A,,Overcast,280,2007-01-09 22:56:00
6:18 PM,28.4,17.6,64,30.10,10.0,WNW,19.6,24.2,N/A,,Overcast,300,2007-01-09 23:18:00
6:36 PM,28.4,17.6,64,30.10,10.0,WNW,16.1,20.7,N/A,,Overcast,290,2007-01-09 23:36:00
7:16 PM,28.4,17.6,64,30.12,10.0,WNW,10.4,19.6,N/A,,Overcast,290,2007-01-10 00:16:00
7:37 PM,28.4,17.6,64,30.12,7.0,WNW,12.7,23.0,N/A,,Overcast,300,2007-01-10 00:37:00
7:56 PM,26.6,19.4,74,30.12,10.0,WNW,15.0,24.2,N/A,,Overcast,300,2007-01-10 00:56:00
8:17 PM,26.6,19.4,74,30.13,5.0,WNW,13.8,29.9,N/A,Snow,Light Snow,290,2007-01-10 01:17:00
8:36 PM,26.6,21.2,80,30.13,10.0,WNW,11.5,-,N/A,Snow,Light Snow,300,2007-01-10 01:36:00
8:56 PM,26.6,19.4,74,30.14,10.0,WNW,10.4,-,N/A,,Overcast,290,2007-01-10 01:56:00
9:16 PM,26.6,19.4,74,30.15,10.0,WNW,5.8,-,N/A,,Overcast,290,2007-01-10 02:16:00
9:36 PM,26.6,17.6,69,30.15,10.0,WNW,10.4,-,N/A,,Overcast,290,2007-01-10 02:36:00
9:56 PM,28.4,15.8,59,30.15,10.0,WNW,11.5,20.7,N/A,,Overcast,290,2007-01-10 02:56:00
10:16 PM,26.6,17.6,69,30.15,10.0,WNW,16.1,29.9,N/A,Snow,Light Snow,300,2007-01-10 03:16:00
10:36 PM,26.6,17.6,69,30.16,10.0,WNW,17.3,25.3,N/A,Snow,Light Snow,300,2007-01-10 03:36:00
10:56 PM,26.6,15.8,64,30.17,10.0,WNW,17.3,25.3,N/A,Snow,Light Snow,290,2007-01-10 03:56:00
11:16 PM,26.6,15.8,64,30.17,10.0,WNW,17.3,26.5,N/A,Snow,Light Snow,290,2007-01-10 04:16:00
11:36 PM,26.6,15.8,64,30.17,10.0,WNW,12.7,16.1,N/A,,Overcast,290,2007-01-10 04:36:00
11:56 PM,26.6,15.8,64,30.17,10.0,WNW,11.5,19.6,N/A,,Overcast,300,2007-01-10 04:56:00